Time,TemperatureF,DewpointF,PressureIn,WindDirection,WindDirectionDegrees,WindSpeedMPH,WindSpeedGustMPH,Humidity,HourlyPrecipIn,Conditions,Clouds,dailyrainin,SoftwareType,DateUTC
2013-03-19 00:03:00,26.0,11.0,29.86,ENE,66,0.0,-999.0,53,-99.99,,,-99.99,,2013-03-19 04:03:00,
2013-03-19 00:13:00,26.0,11.0,29.86,ENE,66,0.0,-999.0,53,-99.99,,,-99.99,,2013-03-19 04:13:00,
2013-03-19 00:23:00,27.0,14.0,29.81,ENE,66,0.0,-999.0,58,-99.99,,,-99.99,,2013-03-19 04:23:00,
2013-03-19 00:34:00,26.0,14.0,29.85,ENE,66,0.0,-999.0,59,-99.99,,,-99.99,,2013-03-19 04:34:00,
2013-03-19 00:43:00,26.0,14.0,29.85,ENE,66,0.0,-999.0,59,-99.99,,,-99.99,,2013-03-19 04:43:00,
2013-03-19 00:53:00,27.0,15.0,29.79,ENE,66,0.0,-999.0,59,-99.99,,,-99.99,,2013-03-19 04:53:00,
2013-03-19 01:02:00,26.0,14.0,29.83,ENE,66,0.0,-999.0,59,-99.99,,,-99.99,,2013-03-19 05:02:00,
2013-03-19 01:12:00,26.0,14.0,29.83,ENE,66,0.0,-999.0,59,-99.99,,,-99.99,,2013-03-19 05:12:00,
2013-03-19 01:22:00,27.0,15.0,29.77,South,171,0.0,-999.0,59,-99.99,,,-99.99,,2013-03-19 05:22:00,
2013-03-19 01:32:00,26.0,14.0,29.81,South,172,1.0,-999.0,60,-99.99,,,-99.99,,2013-03-19 05:32:00,
2013-03-19 01:43:00,26.0,14.0,29.81,South,172,1.0,-999.0,60,-99.99,,,-99.99,,2013-03-19 05:43:00,
2013-03-19 01:52:00,27.0,14.0,29.76,South,171,0.0,-999.0,57,-99.99,,,-99.99,,2013-03-19 05:52:00,
2013-03-19 02:02:00,26.0,13.0,29.81,South,171,0.0,-999.0,58,-99.99,,,-99.99,,2013-03-19 06:02:00,
2013-03-19 02:12:00,26.0,13.0,29.81,South,171,0.0,-999.0,58,-99.99,,,-99.99,,2013-03-19 06:12:00,
2013-03-19 02:22:00,26.0,22.0,29.76,East,92,1.0,-999.0,84,-99.99,,,-99.99,,2013-03-19 06:22:00,
2013-03-19 02:32:00,25.0,22.0,29.80,ESE,102,0.0,-999.0,88,-99.99,,,-99.99,,2013-03-19 06:32:00,
2013-03-19 02:42:00,25.0,22.0,29.80,ESE,102,0.0,-999.0,88,-99.99,,,-99.99,,2013-03-19 06:42:00,
2013-03-19 02:53:00,25.0,22.0,29.79,ESE,102,0.0,-999.0,90,-99.99,,,-99.99,,2013-03-19 06:53:00,
2013-03-19 03:02:00,25.0,22.0,29.79,ESE,102,0.0,-999.0,90,-99.99,,,-99.99,,2013-03-19 07:02:00,
2013-03-19 03:12:00,25.0,22.0,29.79,ESE,102,0.0,-999.0,90,-99.99,,,-99.99,,2013-03-19 07:12:00,
2013-03-19 03:22:00,25.0,23.0,29.73,ESE,102,0.0,-999.0,91,-99.99,,,-99.99,,2013-03-19 07:22:00,
2013-03-19 03:32:00,25.0,23.0,29.77,ESE,102,0.0,-999.0,91,-99.99,,,-99.99,,2013-03-19 07:32:00,
2013-03-19 03:42:00,25.0,23.0,29.77,ESE,102,0.0,-999.0,91,-99.99,,,-99.99,,2013-03-19 07:42:00,
2013-03-19 03:53:00,25.0,23.0,29.71,ESE,102,0.0,-999.0,92,-99.99,,,-99.99,,2013-03-19 07:53:00,
2013-03-19 04:03:00,25.0,23.0,29.75,ESE,102,0.0,-999.0,92,-99.99,,,-99.99,,2013-03-19 08:03:00,
2013-03-19 04:13:00,25.0,23.0,29.75,ESE,102,0.0,-999.0,92,-99.99,,,-99.99,,2013-03-19 08:13:00,
2013-03-19 04:22:00,25.0,23.0,29.70,ESE,102,0.0,-999.0,92,-99.99,,,-99.99,,2013-03-19 08:22:00,
2013-03-19 04:32:00,25.0,23.0,29.74,ESE,102,0.0,-999.0,92,-99.99,,,-99.99,,2013-03-19 08:32:00,
2013-03-19 04:42:00,25.0,23.0,29.74,ESE,102,0.0,-999.0,92,-99.99,,,-99.99,,2013-03-19 08:42:00,
2013-03-19 04:52:00,25.0,23.0,29.70,ESE,102,0.0,-999.0,93,-99.99,,,-99.99,,2013-03-19 08:52:00,
2013-03-19 05:02:00,25.0,23.0,29.73,ESE,102,0.0,-999.0,93,-99.99,,,-99.99,,2013-03-19 09:02:00,
2013-03-19 05:12:00,25.0,23.0,29.73,ESE,102,0.0,-999.0,93,-99.99,,,-99.99,,2013-03-19 09:12:00,
2013-03-19 05:23:00,25.0,23.0,29.72,ESE,102,0.0,-999.0,93,-99.99,,,-99.99,,2013-03-19 09:23:00,
2013-03-19 05:33:00,25.0,23.0,29.72,ESE,102,0.0,-999.0,93,-99.99,,,-99.99,,2013-03-19 09:33:00,
2013-03-19 05:43:00,25.0,23.0,29.72,ESE,102,0.0,-999.0,93,-99.99,,,-99.99,,2013-03-19 09:43:00,
2013-03-19 05:53:00,25.0,23.0,29.67,ESE,102,0.0,-999.0,93,-99.99,,,-99.99,,2013-03-19 09:53:00,
2013-03-19 06:04:00,25.0,23.0,29.71,ESE,102,0.0,-999.0,93,-99.99,,,-99.99,,2013-03-19 10:04:00,
2013-03-19 06:13:00,25.0,23.0,29.71,ESE,102,0.0,-999.0,93,-99.99,,,-99.99,,2013-03-19 10:13:00,
2013-03-19 06:23:00,25.0,24.0,29.65,ESE,102,0.0,-999.0,94,-99.99,,,-99.99,,2013-03-19 10:23:00,
2013-03-19 06:33:00,25.0,24.0,29.70,ESE,102,0.0,-999.0,94,-99.99,,,-99.99,,2013-03-19 10:33:00,
2013-03-19 06:42:00,25.0,24.0,29.70,ESE,102,0.0,-999.0,94,-99.99,,,-99.99,,2013-03-19 10:42:00,
2013-03-19 06:53:00,25.0,24.0,29.65,ESE,102,0.0,-999.0,94,-99.99,,,-99.99,,2013-03-19 10:53:00,
2013-03-19 07:03:00,25.0,24.0,29.69,ESE,102,0.0,-999.0,94,-99.99,,,-99.99,,2013-03-19 11:03:00,
2013-03-19 07:12:00,25.0,24.0,29.69,ESE,102,0.0,-999.0,94,-99.99,,,-99.99,,2013-03-19 11:12:00,
2013-03-19 07:22:00,25.0,24.0,29.64,ESE,102,0.0,-999.0,94,-99.99,,,-99.99,,2013-03-19 11:22:00,
2013-03-19 07:33:00,25.0,24.0,29.67,ESE,102,0.0,-999.0,94,-99.99,,,-99.99,,2013-03-19 11:33:00,
2013-03-19 07:43:00,25.0,24.0,29.67,ESE,102,0.0,-999.0,94,-99.99,,,-99.99,,2013-03-19 11:43:00,
2013-03-19 07:53:00,25.0,24.0,29.67,ESE,102,0.0,-999.0,94,-99.99,,,-99.99,,2013-03-19 11:53:00,
2013-03-19 08:02:00,25.0,24.0,29.66,ESE,102,0.0,-999.0,94,-99.99,,,-99.99,,2013-03-19 12:02:00,
2013-03-19 08:12:00,25.0,24.0,29.66,ESE,102,0.0,-999.0,94,-99.99,,,-99.99,,2013-03-19 12:12:00,
2013-03-19 08:23:00,26.0,25.0,29.61,ESE,102,0.0,-999.0,94,-99.99,,,-99.99,,2013-03-19 12:23:00,
2013-03-19 08:33:00,25.0,24.0,29.65,ESE,102,0.0,-999.0,94,-99.99,,,-99.99,,2013-03-19 12:33:00,
2013-03-19 08:43:00,25.0,24.0,29.65,ESE,102,0.0,-999.0,94,-99.99,,,-99.99,,2013-03-19 12:43:00,
2013-03-19 08:52:00,26.0,25.0,29.60,ESE,102,0.0,-999.0,94,-99.99,,,-99.99,,2013-03-19 12:52:00,
2013-03-19 09:02:00,26.0,25.0,29.64,East,101,0.0,-999.0,94,-99.99,,,-99.99,,2013-03-19 13:02:00,
2013-03-19 09:12:00,26.0,25.0,29.64,East,101,0.0,-999.0,94,-99.99,,,-99.99,,2013-03-19 13:12:00,
2013-03-19 09:23:00,27.0,25.0,29.58,ESE,102,0.0,-999.0,93,-99.99,,,-99.99,,2013-03-19 13:23:00,
2013-03-19 09:33:00,26.0,24.0,29.62,ESE,102,0.0,-999.0,93,-99.99,,,-99.99,,2013-03-19 13:33:00,
2013-03-19 09:42:00,26.0,24.0,29.62,ESE,102,0.0,-999.0,93,-99.99,,,-99.99,,2013-03-19 13:42:00,
2013-03-19 09:53:00,28.0,26.0,29.57,ESE,102,0.0,-999.0,92,-99.99,,,-99.99,,2013-03-19 13:53:00,
2013-03-19 10:02:00,28.0,26.0,29.59,ESE,102,0.0,-999.0,92,-99.99,,,-99.99,,2013-03-19 14:02:00,
2013-03-19 10:12:00,28.0,26.0,29.59,ESE,102,0.0,-999.0,92,-99.99,,,-99.99,,2013-03-19 14:12:00,
2013-03-19 10:22:00,28.0,26.0,29.59,ESE,102,0.0,-999.0,91,-99.99,,,-99.99,,2013-03-19 14:22:00,
2013-03-19 10:32:00,28.0,26.0,29.59,ESE,102,0.0,-999.0,91,-99.99,,,-99.99,,2013-03-19 14:32:00,
2013-03-19 10:42:00,28.0,26.0,29.59,ESE,102,0.0,-999.0,91,-99.99,,,-99.99,,2013-03-19 14:42:00,
2013-03-19 10:53:00,30.0,27.0,29.54,SE,124,0.0,-999.0,88,-99.99,,,-99.99,,2013-03-19 14:53:00,
2013-03-19 11:02:00,29.0,26.0,29.58,SE,124,0.0,-999.0,89,-99.99,,,-99.99,,2013-03-19 15:02:00,
2013-03-19 11:12:00,29.0,26.0,29.58,SE,124,0.0,-999.0,89,-99.99,,,-99.99,,2013-03-19 15:12:00,
2013-03-19 11:23:00,31.0,27.0,29.53,SE,124,0.0,-999.0,86,-99.99,,,-99.99,,2013-03-19 15:23:00,
2013-03-19 11:34:00,30.0,26.0,29.57,South,182,0.0,-999.0,85,-99.99,,,-99.99,,2013-03-19 15:34:00,
2013-03-19 11:44:00,30.0,26.0,29.57,South,182,0.0,-999.0,85,-99.99,,,-99.99,,2013-03-19 15:44:00,
2013-03-19 11:54:00,32.0,27.0,29.52,South,180,0.0,-999.0,83,-99.99,,,-99.99,,2013-03-19 15:54:00,
2013-03-19 12:04:00,31.0,26.0,29.55,ESE,104,0.0,-999.0,83,-99.99,,,-99.99,,2013-03-19 16:04:00,
2013-03-19 12:13:00,31.0,26.0,29.55,ESE,104,0.0,-999.0,83,-99.99,,,-99.99,,2013-03-19 16:13:00,
2013-03-19 12:24:00,32.0,25.0,29.51,North,6,0.0,-999.0,75,-99.99,,,-99.99,,2013-03-19 16:24:00,
2013-03-19 12:34:00,31.0,23.0,29.55,WNW,298,0.0,-999.0,73,-99.99,,,-99.99,,2013-03-19 16:34:00,
2013-03-19 12:44:00,31.0,23.0,29.55,WNW,298,0.0,-999.0,73,-99.99,,,-99.99,,2013-03-19 16:44:00,
2013-03-19 12:55:00,31.0,23.0,29.55,NW,318,0.0,-999.0,73,-99.99,,,-99.99,,2013-03-19 16:55:00,
2013-03-19 13:03:00,31.0,23.0,29.55,NW,318,0.0,-999.0,73,-99.99,,,-99.99,,2013-03-19 17:03:00,
2013-03-19 13:14:00,31.0,23.0,29.55,NW,318,0.0,-999.0,73,-99.99,,,-99.99,,2013-03-19 17:14:00,
2013-03-19 13:24:00,32.0,25.0,29.51,NW,318,0.0,-999.0,74,-99.99,,,-99.99,,2013-03-19 17:24:00,
2013-03-19 13:34:00,31.0,24.0,29.55,ESE,111,0.0,-999.0,76,-99.99,,,-99.99,,2013-03-19 17:34:00,
2013-03-19 13:44:00,31.0,24.0,29.55,ESE,111,0.0,-999.0,76,-99.99,,,-99.99,,2013-03-19 17:44:00,
2013-03-19 13:53:00,31.0,25.0,29.51,North,7,0.0,-999.0,77,-99.99,,,-99.99,,2013-03-19 17:53:00,
2013-03-19 14:03:00,30.0,24.0,29.54,North,2,0.0,-999.0,78,-99.99,,,-99.99,,2013-03-19 18:03:00,
2013-03-19 14:14:00,30.0,24.0,29.54,North,2,0.0,-999.0,78,-99.99,,,-99.99,,2013-03-19 18:14:00,
2013-03-19 14:23:00,29.0,25.0,29.50,NNW,334,0.0,-999.0,84,-99.99,,,-99.99,,2013-03-19 18:23:00,
2013-03-19 14:34:00,29.0,26.0,29.53,WNW,301,0.0,-999.0,87,-99.99,,,-99.99,,2013-03-19 18:34:00,
2013-03-19 14:43:00,29.0,26.0,29.53,WNW,301,0.0,-999.0,87,-99.99,,,-99.99,,2013-03-19 18:43:00,
2013-03-19 14:53:00,28.0,25.0,29.48,West,273,0.0,-999.0,90,-99.99,,,-99.99,,2013-03-19 18:53:00,
2013-03-19 15:02:00,27.0,25.0,29.50,West,275,5.0,-999.0,92,-99.99,,,-99.99,,2013-03-19 19:02:00,
2013-03-19 15:12:00,27.0,25.0,29.50,West,275,5.0,-999.0,92,-99.99,,,-99.99,,2013-03-19 19:12:00,
2013-03-19 15:22:00,27.0,26.0,29.45,West,266,7.0,-999.0,94,-99.99,,,-99.99,,2013-03-19 19:22:00,
2013-03-19 15:33:00,27.0,26.0,29.48,West,278,8.0,-999.0,94,-99.99,,,-99.99,,2013-03-19 19:33:00,
2013-03-19 15:43:00,27.0,26.0,29.48,West,278,8.0,-999.0,94,-99.99,,,-99.99,,2013-03-19 19:43:00,
2013-03-19 15:53:00,27.0,26.0,29.42,WSW,248,6.0,-999.0,94,-99.99,,,-99.99,,2013-03-19 19:53:00,
2013-03-19 16:03:00,27.0,26.0,29.46,NW,321,6.0,-999.0,94,-99.99,,,-99.99,,2013-03-19 20:03:00,
2013-03-19 16:12:00,27.0,26.0,29.46,NW,321,6.0,-999.0,94,-99.99,,,-99.99,,2013-03-19 20:12:00,
2013-03-19 16:23:00,27.0,25.0,29.40,WSW,243,4.0,-999.0,93,-99.99,,,-99.99,,2013-03-19 20:23:00,
2013-03-19 16:33:00,27.0,25.0,29.43,NNW,328,3.0,-999.0,93,-99.99,,,-99.99,,2013-03-19 20:33:00,
2013-03-19 16:43:00,27.0,25.0,29.43,NNW,328,3.0,-999.0,93,-99.99,,,-99.99,,2013-03-19 20:43:00,
2013-03-19 16:53:00,27.0,25.0,29.39,West,262,3.0,-999.0,93,-99.99,,,-99.99,,2013-03-19 20:53:00,
2013-03-19 17:02:00,27.0,25.0,29.43,WSW,257,2.0,-999.0,92,-99.99,,,-99.99,,2013-03-19 21:02:00,
2013-03-19 17:12:00,27.0,25.0,29.43,WSW,257,2.0,-999.0,92,-99.99,,,-99.99,,2013-03-19 21:12:00,
2013-03-19 17:23:00,28.0,26.0,29.39,NW,321,3.0,-999.0,92,-99.99,,,-99.99,,2013-03-19 21:23:00,
2013-03-19 17:34:00,27.0,25.0,29.42,NW,315,3.0,-999.0,92,-99.99,,,-99.99,,2013-03-19 21:34:00,
2013-03-19 17:43:00,27.0,25.0,29.42,NW,315,3.0,-999.0,92,-99.99,,,-99.99,,2013-03-19 21:43:00,
2013-03-19 17:53:00,28.0,26.0,29.38,WNW,289,2.0,-999.0,92,-99.99,,,-99.99,,2013-03-19 21:53:00,
2013-03-19 18:03:00,27.0,25.0,29.42,NW,305,2.0,-999.0,92,-99.99,,,-99.99,,2013-03-19 22:03:00,
2013-03-19 18:13:00,27.0,25.0,29.42,NW,305,2.0,-999.0,92,-99.99,,,-99.99,,2013-03-19 22:13:00,
2013-03-19 18:24:00,27.0,25.0,29.39,WSW,243,4.0,-999.0,92,-99.99,,,-99.99,,2013-03-19 22:24:00,
2013-03-19 18:33:00,27.0,25.0,29.42,WNW,285,4.0,-999.0,93,-99.99,,,-99.99,,2013-03-19 22:33:00,
2013-03-19 18:44:00,27.0,25.0,29.42,WNW,285,4.0,-999.0,93,-99.99,,,-99.99,,2013-03-19 22:44:00,
2013-03-19 18:53:00,27.0,25.0,29.39,NW,321,4.0,-999.0,91,-99.99,,,-99.99,,2013-03-19 22:53:00,
2013-03-19 19:03:00,26.0,24.0,29.42,NNW,343,3.0,-999.0,91,-99.99,,,-99.99,,2013-03-19 23:03:00,
2013-03-19 19:12:00,26.0,24.0,29.42,NNW,343,3.0,-999.0,91,-99.99,,,-99.99,,2013-03-19 23:12:00,
2013-03-19 19:22:00,26.0,24.0,29.39,WSW,247,3.0,-999.0,91,-99.99,,,-99.99,,2013-03-19 23:22:00,
2013-03-19 19:32:00,25.0,23.0,29.43,WSW,238,3.0,-999.0,91,-99.99,,,-99.99,,2013-03-19 23:32:00,
2013-03-19 19:43:00,25.0,23.0,29.43,WSW,238,3.0,-999.0,91,-99.99,,,-99.99,,2013-03-19 23:43:00,
2013-03-19 19:53:00,25.0,23.0,29.39,West,275,2.0,-999.0,91,-99.99,,,-99.99,,2013-03-19 23:53:00,
2013-03-19 20:03:00,25.0,23.0,29.43,South,191,1.0,-999.0,92,-99.99,,,-99.99,,2013-03-20 00:03:00,
2013-03-19 20:13:00,25.0,23.0,29.43,South,191,1.0,-999.0,92,-99.99,,,-99.99,,2013-03-20 00:13:00,
2013-03-19 20:22:00,24.0,22.0,29.44,NW,313,4.0,-999.0,91,-99.99,,,-99.99,,2013-03-20 00:22:00,
2013-03-19 20:33:00,24.0,22.0,29.44,NW,313,4.0,-999.0,91,-99.99,,,-99.99,,2013-03-20 00:33:00,
2013-03-19 20:42:00,24.0,22.0,29.44,NW,313,4.0,-999.0,91,-99.99,,,-99.99,,2013-03-20 00:42:00,
2013-03-19 20:52:00,24.0,22.0,29.40,West,279,4.0,-999.0,91,-99.99,,,-99.99,,2013-03-20 00:52:00,
2013-03-19 21:03:00,24.0,22.0,29.43,WNW,285,3.0,-999.0,91,-99.99,,,-99.99,,2013-03-20 01:03:00,
2013-03-19 21:12:00,24.0,22.0,29.43,WNW,285,3.0,-999.0,91,-99.99,,,-99.99,,2013-03-20 01:12:00,
2013-03-19 21:22:00,24.0,22.0,29.40,NNW,334,1.0,-999.0,90,-99.99,,,-99.99,,2013-03-20 01:22:00,
2013-03-19 21:32:00,23.0,21.0,29.44,NW,313,3.0,-999.0,90,-99.99,,,-99.99,,2013-03-20 01:32:00,
2013-03-19 21:43:00,23.0,21.0,29.44,NW,313,3.0,-999.0,90,-99.99,,,-99.99,,2013-03-20 01:43:00,
2013-03-19 21:53:00,24.0,22.0,29.40,NW,311,1.0,-999.0,91,-99.99,,,-99.99,,2013-03-20 01:53:00,
2013-03-19 22:02:00,23.0,21.0,29.44,West,281,1.0,-999.0,91,-99.99,,,-99.99,,2013-03-20 02:02:00,
2013-03-19 22:12:00,23.0,21.0,29.44,West,281,1.0,-999.0,91,-99.99,,,-99.99,,2013-03-20 02:12:00,
2013-03-19 22:22:00,23.0,21.0,29.40,NNW,328,0.0,-999.0,91,-99.99,,,-99.99,,2013-03-20 02:22:00,
2013-03-19 22:32:00,23.0,21.0,29.44,NNW,328,0.0,-999.0,92,-99.99,,,-99.99,,2013-03-20 02:32:00,
2013-03-19 22:42:00,23.0,21.0,29.44,NNW,328,0.0,-999.0,92,-99.99,,,-99.99,,2013-03-20 02:42:00,
2013-03-19 22:53:00,23.0,21.0,29.40,NNW,328,0.0,-999.0,93,-99.99,,,-99.99,,2013-03-20 02:53:00,
2013-03-19 23:02:00,22.0,20.0,29.44,NNW,328,0.0,-999.0,93,-99.99,,,-99.99,,2013-03-20 03:02:00,
2013-03-19 23:12:00,23.0,22.0,29.39,NNW,328,0.0,-999.0,94,-99.99,,,-99.99,,2013-03-20 03:12:00,
2013-03-19 23:22:00,23.0,22.0,29.39,NNW,328,0.0,-999.0,94,-99.99,,,-99.99,,2013-03-20 03:22:00,
2013-03-19 23:34:00,22.0,21.0,29.43,NNW,328,0.0,-999.0,94,-99.99,,,-99.99,,2013-03-20 03:34:00,
2013-03-19 23:43:00,22.0,21.0,29.43,NNW,328,0.0,-999.0,94,-99.99,,,-99.99,,2013-03-20 03:43:00,
2013-03-19 23:53:00,22.0,21.0,29.43,NNW,328,0.0,-999.0,94,-99.99,,,-99.99,,2013-03-20 03:53:00,